TimeEST,TemperatureF,Dew PointF,Humidity,Sea Level PressureIn,VisibilityMPH,Wind Direction,Wind SpeedMPH,Gust SpeedMPH,PrecipitationIn,Events,Conditions,WindDirDegrees,DateUTC
12:54 AM,57.9,55.0,90,29.81,10.0,SSW,8.1,-,N/A,,Clear,210,2012-03-01 05:54:00
1:54 AM,57.9,55.0,90,29.81,10.0,SE,6.9,-,N/A,,Mostly Cloudy,140,2012-03-01 06:54:00
2:54 AM,57.2,53.6,88,29.86,10.0,Calm,Calm,-,N/A,,Partly Cloudy,0,2012-03-01 07:54:00
3:54 AM,55.0,54.0,96,29.81,10.0,Calm,Calm,-,N/A,,Overcast,0,2012-03-01 08:54:00
4:54 AM,57.9,51.1,78,29.83,10.0,North,10.4,-,0.00,,Overcast,10,2012-03-01 09:54:00
5:54 AM,54.0,50.0,86,29.85,10.0,NNW,9.2,-,N/A,,Scattered Clouds,330,2012-03-01 10:54:00
6:54 AM,54.0,46.9,77,29.86,10.0,North,9.2,-,N/A,,Clear,350,2012-03-01 11:54:00
7:54 AM,52.0,46.0,80,29.87,10.0,NNW,9.2,-,N/A,,Clear,340,2012-03-01 12:54:00
8:54 AM,57.2,44.6,63,29.92,10.0,North,12.7,-,N/A,,Clear,350,2012-03-01 13:54:00
9:54 AM,61.0,42.1,50,29.87,10.0,North,9.2,-,N/A,,Clear,350,2012-03-01 14:54:00
10:54 AM,66.2,37.4,35,29.92,10.0,Calm,Calm,-,N/A,,Clear,0,2012-03-01 15:54:00
11:54 AM,69.8,35.6,28,29.90,10.0,SW,5.8,-,N/A,,Clear,220,2012-03-01 16:54:00
12:54 PM,72.0,27.0,19,29.82,10.0,WNW,9.2,-,N/A,,Clear,300,2012-03-01 17:54:00
1:54 PM,71.6,28.4,20,29.85,10.0,North,10.4,-,N/A,,Clear,360,2012-03-01 18:54:00
2:54 PM,71.1,26.1,19,29.79,10.0,NNW,11.5,-,N/A,,Clear,340,2012-03-01 19:54:00
3:54 PM,70.0,23.0,17,29.79,10.0,North,12.7,-,N/A,,Clear,350,2012-03-01 20:54:00
4:54 PM,70.0,24.1,18,29.79,10.0,NNW,10.4,-,N/A,,Clear,340,2012-03-01 21:54:00
5:54 PM,66.0,23.0,20,29.83,10.0,NNW,16.1,-,N/A,,Clear,340,2012-03-01 22:54:00
6:54 PM,62.1,25.0,24,29.85,10.0,NNW,11.5,-,N/A,,Clear,340,2012-03-01 23:54:00
7:54 PM,55.9,28.0,34,29.88,10.0,NW,8.1,-,N/A,,Clear,320,2012-03-02 00:54:00
8:54 PM,54.0,28.9,38,29.88,10.0,NNW,9.2,-,N/A,,Clear,340,2012-03-02 01:54:00
9:54 PM,51.1,30.9,46,29.89,10.0,Calm,Calm,-,N/A,,Clear,0,2012-03-02 02:54:00
10:54 PM,45.0,33.1,63,29.89,10.0,Calm,Calm,-,N/A,,Clear,0,2012-03-02 03:54:00
11:54 PM,44.1,33.1,65,29.89,10.0,Calm,Calm,-,N/A,,Clear,0,2012-03-02 04:54:00